BOV751 SLVR-MUHA

Flight info

Callsign BOV751
Flight time N/A
Altitude 32000
Route DIBAS UM415 LOKOX UM784 ROBOK/N0470F340 UM784 VUMPU UN420 NIRBU/N0468F360 UN420 TBG UL465 GCM UG448 ATUVI HERFO2A
Aircraft B738/M-SDE2E3FGHIRWXY/LB1

Departure

Time N/A
Airport Viru Viru International Airport (SLVR)

Arrival

Time 2026-05-08 09:55
Airport José Martí International Airport (MUHA)
Time Latitude Longitude Altitude Speed Heading
2026-05-08 04:41 -16.98062 -65.26396 27353 ft 464 kts 288°
2026-05-08 04:41 -16.97086 -65.29564 27588 ft 463 kts 288°
2026-05-08 04:41 -16.96099 -65.32763 27797 ft 463 kts 288°
2026-05-08 04:41 -16.95112 -65.35961 28015 ft 463 kts 288°
2026-05-08 04:42 -16.94123 -65.39164 28255 ft 462 kts 288°
2026-05-08 04:42 -16.93136 -65.42361 28501 ft 461 kts 288°
2026-05-08 04:42 -16.92149 -65.45553 28740 ft 461 kts 288°
2026-05-08 04:42 -16.91164 -65.48738 28964 ft 461 kts 288°
2026-05-08 04:43 -16.90180 -65.51917 29210 ft 460 kts 288°
2026-05-08 04:43 -16.89196 -65.55094 29461 ft 460 kts 288°
2026-05-08 04:43 -16.88212 -65.58270 29723 ft 459 kts 288°
2026-05-08 04:43 -16.87231 -65.61437 29995 ft 458 kts 288°
2026-05-08 04:44 -16.86249 -65.64603 30238 ft 458 kts 288°
2026-05-08 04:44 -16.85282 -65.67719 30467 ft 457 kts 288°
2026-05-08 04:44 -16.84129 -65.70807 30703 ft 456 kts 298°
2026-05-08 04:44 -16.82276 -65.73484 30922 ft 456 kts 312°
2026-05-08 04:45 -16.79894 -65.75675 31131 ft 459 kts 324°
2026-05-08 04:45 -16.77069 -65.77256 31322 ft 461 kts 333°
2026-05-08 04:45 -16.74142 -65.78616 31580 ft 460 kts 334°
2026-05-08 04:45 -16.71202 -65.79952 31765 ft 461 kts 334°
2026-05-08 04:46 -16.68264 -65.81291 31936 ft 461 kts 334°
2026-05-08 04:46 -16.65330 -65.82642 32151 ft 460 kts 333°
2026-05-08 04:46 -16.62401 -65.84006 32372 ft 459 kts 333°
2026-05-08 04:46 -16.59522 -65.85359 32573 ft 459 kts 333°
2026-05-08 04:47 -16.56571 -65.86752 32764 ft 459 kts 333°
2026-05-08 04:47 -16.53663 -65.88129 32980 ft 458 kts 333°
2026-05-08 04:47 -16.50763 -65.89502 33214 ft 457 kts 332°
2026-05-08 04:47 -16.47866 -65.90873 33407 ft 458 kts 332°
2026-05-08 04:48 -16.44965 -65.92246 33576 ft 458 kts 332°
2026-05-08 04:48 -16.42054 -65.93622 33775 ft 458 kts 332°
2026-05-08 04:48 -16.39161 -65.94989 34023 ft 457 kts 332°
2026-05-08 04:48 -16.36263 -65.96357 34205 ft 457 kts 332°
2026-05-08 04:49 -16.33371 -65.97722 34407 ft 456 kts 332°
2026-05-08 04:49 -16.30523 -65.99065 34633 ft 454 kts 332°
2026-05-08 04:49 -16.27642 -66.00423 34812 ft 453 kts 332°
2026-05-08 04:49 -16.24771 -66.01777 34957 ft 453 kts 332°
2026-05-08 04:50 -16.21900 -66.03131 35124 ft 452 kts 332°
2026-05-08 04:50 -16.19025 -66.04486 35307 ft 451 kts 332°
2026-05-08 04:50 -16.16167 -66.05832 35478 ft 450 kts 332°
2026-05-08 04:50 -16.13314 -66.07176 35614 ft 450 kts 332°
2026-05-08 04:51 -16.10458 -66.08521 35747 ft 450 kts 332°
2026-05-08 04:51 -16.07607 -66.09863 35897 ft 449 kts 332°
2026-05-08 04:51 -16.01892 -66.12552 35928 ft 451 kts 332°
2026-05-08 04:52 -15.96175 -66.15240 35927 ft 450 kts 332°
2026-05-08 04:52 -15.90520 -66.17896 35918 ft 448 kts 332°
2026-05-08 04:53 -15.84842 -66.20562 35914 ft 447 kts 332°
2026-05-08 04:53 -15.79177 -66.23221 35909 ft 446 kts 332°
2026-05-08 04:54 -15.73519 -66.25875 35906 ft 446 kts 333°
2026-05-08 04:54 -15.67851 -66.28532 35901 ft 446 kts 333°
2026-05-08 04:55 -15.62177 -66.31190 35890 ft 447 kts 333°
2026-05-08 04:55 -15.56533 -66.33833 35884 ft 448 kts 333°
2026-05-08 04:56 -15.50812 -66.36515 35883 ft 449 kts 333°
2026-05-08 04:56 -15.45161 -66.39186 35875 ft 449 kts 332°
2026-05-08 04:57 -15.39465 -66.41882 35871 ft 450 kts 333°
2026-05-08 04:57 -15.33763 -66.44577 35863 ft 451 kts 333°
2026-05-08 04:58 -15.28051 -66.47274 35855 ft 451 kts 333°
2026-05-08 04:58 -15.22331 -66.49973 35852 ft 452 kts 333°
2026-05-08 04:59 -15.16609 -66.52670 35837 ft 452 kts 333°
2026-05-08 04:59 -15.10882 -66.55369 35832 ft 452 kts 333°
2026-05-08 05:00 -15.05188 -66.58051 35829 ft 451 kts 333°
2026-05-08 05:00 -14.99467 -66.60743 35827 ft 451 kts 333°
2026-05-08 05:01 -14.93749 -66.63433 35823 ft 451 kts 333°
2026-05-08 05:01 -14.88040 -66.66116 35816 ft 450 kts 333°
2026-05-08 05:02 -14.82338 -66.68795 35823 ft 449 kts 333°
2026-05-08 05:02 -14.76696 -66.71445 35824 ft 448 kts 333°
2026-05-08 05:03 -14.71017 -66.74110 35825 ft 447 kts 333°
2026-05-08 05:03 -14.65348 -66.76770 35825 ft 447 kts 333°
2026-05-08 05:04 -14.59683 -66.79426 35822 ft 447 kts 333°
2026-05-08 05:04 -14.54012 -66.82083 35826 ft 448 kts 333°
2026-05-08 05:05 -14.48328 -66.84745 35828 ft 449 kts 333°
2026-05-08 05:05 -14.42679 -66.87492 35826 ft 449 kts 332°
2026-05-08 05:06 -14.37092 -66.90298 35828 ft 450 kts 332°
2026-05-08 05:06 -14.31450 -66.93128 35830 ft 451 kts 332°
2026-05-08 05:07 -14.25792 -66.95949 35828 ft 452 kts 332°
2026-05-08 05:07 -14.20122 -66.98768 35827 ft 453 kts 332°
2026-05-08 05:08 -14.14441 -67.01590 35829 ft 453 kts 332°
2026-05-08 05:08 -14.08752 -67.04414 35827 ft 454 kts 332°
2026-05-08 05:09 -14.03069 -67.07234 35826 ft 454 kts 332°
2026-05-08 05:09 -13.97377 -67.10057 35826 ft 453 kts 332°
2026-05-08 05:10 -13.88857 -67.14279 35832 ft 452 kts 332°
2026-05-08 05:11 -13.83221 -67.17070 35829 ft 452 kts 332°
2026-05-08 05:11 -13.80390 -67.18472 35933 ft 451 kts 332°
2026-05-08 05:11 -13.77565 -67.19870 35892 ft 448 kts 332°
2026-05-08 05:12 -13.71986 -67.22629 35840 ft 441 kts 332°
2026-05-08 05:12 -13.66460 -67.25362 35834 ft 440 kts 332°
2026-05-08 05:13 -13.60946 -67.28088 35833 ft 439 kts 332°
2026-05-08 05:13 -13.55433 -67.30812 35835 ft 439 kts 332°
2026-05-08 05:14 -13.49917 -67.33535 35835 ft 440 kts 332°
2026-05-08 05:14 -13.44422 -67.36247 35841 ft 441 kts 332°
2026-05-08 05:15 -13.38869 -67.38986 35840 ft 443 kts 332°
2026-05-08 05:15 -13.33298 -67.41733 35837 ft 445 kts 332°
2026-05-08 05:16 -13.27705 -67.44488 35842 ft 446 kts 332°
2026-05-08 05:16 -13.22094 -67.47251 35838 ft 447 kts 332°
2026-05-08 05:17 -13.16512 -67.49999 35838 ft 448 kts 332°
2026-05-08 05:17 -13.10889 -67.52765 35841 ft 448 kts 332°
2026-05-08 05:18 -13.05268 -67.55528 35840 ft 448 kts 332°
2026-05-08 05:18 -12.99655 -67.58287 35840 ft 447 kts 332°
2026-05-08 05:19 -12.94053 -67.61038 35839 ft 446 kts 332°
2026-05-08 05:19 -12.88454 -67.63787 35843 ft 445 kts 332°
2026-05-08 05:20 -12.82904 -67.66510 35842 ft 445 kts 332°
2026-05-08 05:20 -12.77325 -67.69247 35844 ft 444 kts 332°
2026-05-08 05:21 -12.71757 -67.71977 35846 ft 443 kts 332°
2026-05-08 05:21 -12.66188 -67.74705 35849 ft 443 kts 332°
2026-05-08 05:22 -12.60666 -67.77410 35849 ft 443 kts 332°
2026-05-08 05:22 -12.55101 -67.80134 35856 ft 443 kts 332°
2026-05-08 05:23 -12.49522 -67.82864 35850 ft 444 kts 332°
2026-05-08 05:23 -12.43946 -67.85591 35853 ft 444 kts 332°
2026-05-08 05:24 -12.38356 -67.88324 35863 ft 445 kts 332°
2026-05-08 05:24 -12.33704 -67.90597 35851 ft 446 kts 332°
2026-05-08 05:25 -12.27188 -67.93779 35851 ft 447 kts 332°
2026-05-08 05:25 -12.22483 -67.96077 35854 ft 447 kts 332°
2026-05-08 05:26 -12.16860 -67.98821 35865 ft 448 kts 332°
2026-05-08 05:26 -12.11279 -68.01582 35864 ft 448 kts 330°
2026-05-08 05:27 -12.05802 -68.04622 35860 ft 448 kts 328°
2026-05-08 05:27 -12.00359 -68.07741 35862 ft 448 kts 328°
2026-05-08 05:28 -11.94900 -68.10842 35869 ft 448 kts 328°
2026-05-08 05:28 -11.89433 -68.13922 35868 ft 448 kts 329°
2026-05-08 05:29 -11.83967 -68.16990 35865 ft 448 kts 329°
2026-05-08 05:29 -11.78499 -68.20058 35813 ft 448 kts 329°
2026-05-08 05:30 -11.73043 -68.23118 35864 ft 447 kts 329°
2026-05-08 05:30 -11.67628 -68.26154 35874 ft 447 kts 329°
2026-05-08 05:31 -11.62177 -68.29210 35870 ft 447 kts 329°
2026-05-08 05:31 -11.56725 -68.32264 35876 ft 448 kts 329°
2026-05-08 05:32 -11.51257 -68.35326 35877 ft 448 kts 329°
2026-05-08 05:32 -11.45789 -68.38387 35879 ft 448 kts 329°
2026-05-08 05:33 -11.40312 -68.41452 35877 ft 449 kts 329°
2026-05-08 05:33 -11.34837 -68.44514 35878 ft 449 kts 329°
2026-05-08 05:34 -11.29354 -68.47579 35877 ft 450 kts 329°
2026-05-08 05:34 -11.23869 -68.50644 35881 ft 450 kts 329°
2026-05-08 05:35 -11.18378 -68.53712 35878 ft 450 kts 329°
2026-05-08 05:35 -11.12883 -68.56780 35885 ft 450 kts 329°
2026-05-08 05:36 -11.07388 -68.59845 35882 ft 450 kts 329°
2026-05-08 05:36 -11.01919 -68.62890 35884 ft 451 kts 329°
2026-05-08 05:37 -10.96411 -68.65957 35886 ft 451 kts 329°
2026-05-08 05:37 -10.90905 -68.69022 35887 ft 451 kts 329°
2026-05-08 05:38 -10.85404 -68.72084 35884 ft 451 kts 329°
2026-05-08 05:38 -10.79907 -68.75142 35887 ft 451 kts 329°
2026-05-08 05:39 -10.74399 -68.78205 35888 ft 450 kts 329°
2026-05-08 05:39 -10.68927 -68.81247 35894 ft 450 kts 329°
2026-05-08 05:40 -10.63425 -68.84304 35890 ft 450 kts 329°
2026-05-08 05:40 -10.57925 -68.87359 35890 ft 450 kts 329°
2026-05-08 05:41 -10.52422 -68.90414 35898 ft 451 kts 329°
2026-05-08 05:41 -10.46904 -68.93477 35897 ft 451 kts 329°
2026-05-08 05:42 -10.41432 -68.96512 35894 ft 451 kts 329°
2026-05-08 05:42 -10.35913 -68.99572 35895 ft 452 kts 329°
2026-05-08 05:43 -10.30395 -69.02630 35899 ft 452 kts 329°
2026-05-08 05:43 -10.24870 -69.05692 35895 ft 452 kts 329°
2026-05-08 05:44 -10.19342 -69.08753 35895 ft 453 kts 329°
2026-05-08 05:44 -10.13806 -69.11818 35897 ft 453 kts 329°
2026-05-08 05:45 -10.08266 -69.14884 35895 ft 454 kts 329°
2026-05-08 05:45 -10.02722 -69.17950 35900 ft 454 kts 329°
2026-05-08 05:46 -9.97168 -69.21022 35898 ft 454 kts 329°
2026-05-08 05:46 -9.91616 -69.24090 35895 ft 455 kts 329°
2026-05-08 05:47 -9.86095 -69.27141 35899 ft 455 kts 329°
2026-05-08 05:47 -9.80528 -69.30216 35901 ft 455 kts 329°
2026-05-08 05:48 -9.74958 -69.33291 35895 ft 455 kts 329°
2026-05-08 05:48 -9.69380 -69.36369 35899 ft 456 kts 329°
2026-05-08 05:49 -9.63814 -69.39440 35898 ft 456 kts 329°
2026-05-08 05:49 -9.58275 -69.42495 35899 ft 456 kts 329°
2026-05-08 05:50 -9.52698 -69.45569 35897 ft 456 kts 329°
2026-05-08 05:50 -9.47122 -69.48642 35901 ft 456 kts 329°
2026-05-08 05:51 -9.41546 -69.51713 35901 ft 456 kts 329°
2026-05-08 05:51 -9.35966 -69.54786 35904 ft 456 kts 329°
2026-05-08 05:52 -9.30389 -69.57856 35907 ft 456 kts 329°
2026-05-08 05:52 -9.24814 -69.60923 35903 ft 456 kts 329°
2026-05-08 05:53 -9.19243 -69.63987 35904 ft 456 kts 329°
2026-05-08 05:53 -9.13703 -69.67033 35904 ft 456 kts 329°
2026-05-08 05:54 -9.08122 -69.70101 35905 ft 456 kts 329°
2026-05-08 05:54 -9.02543 -69.73166 35906 ft 456 kts 329°
2026-05-08 05:55 -8.96958 -69.76234 35905 ft 456 kts 329°
2026-05-08 05:55 -8.91380 -69.79297 35907 ft 456 kts 328°
2026-05-08 05:56 -8.85796 -69.82362 35908 ft 456 kts 329°
2026-05-08 05:56 -8.80258 -69.85400 35908 ft 456 kts 329°
2026-05-08 05:57 -8.74660 -69.88471 35910 ft 456 kts 328°
2026-05-08 05:57 -8.69079 -69.91531 35908 ft 457 kts 328°
2026-05-08 05:58 -8.63492 -69.94593 35911 ft 457 kts 328°
2026-05-08 05:58 -8.57903 -69.97656 35913 ft 457 kts 328°
2026-05-08 05:59 -8.52313 -70.00718 35911 ft 457 kts 328°
2026-05-08 05:59 -8.46717 -70.03781 35913 ft 457 kts 328°
2026-05-08 06:00 -8.41157 -70.06825 35911 ft 457 kts 328°
2026-05-08 06:00 -8.35557 -70.09889 35912 ft 457 kts 328°
2026-05-08 06:01 -8.29961 -70.12951 35912 ft 457 kts 328°
2026-05-08 06:01 -8.24365 -70.16011 35910 ft 457 kts 328°
2026-05-08 06:02 -8.18768 -70.19070 35916 ft 457 kts 328°
2026-05-08 06:02 -8.13162 -70.22134 35917 ft 458 kts 328°
2026-05-08 06:03 -8.07555 -70.25197 35910 ft 458 kts 328°
2026-05-08 06:03 -8.01953 -70.28257 35911 ft 458 kts 328°
2026-05-08 06:04 -7.96349 -70.31317 35910 ft 458 kts 328°
2026-05-08 06:04 -7.90775 -70.34359 35917 ft 458 kts 328°
2026-05-08 06:05 -7.85158 -70.37424 35918 ft 458 kts 328°
2026-05-08 06:05 -7.79547 -70.40485 35918 ft 458 kts 328°
2026-05-08 06:06 -7.73933 -70.43547 35919 ft 458 kts 328°
2026-05-08 06:06 -7.68315 -70.46610 35920 ft 459 kts 328°
2026-05-08 06:07 -7.62700 -70.49670 35917 ft 459 kts 328°
2026-05-08 06:07 -7.57081 -70.52728 35920 ft 459 kts 328°
2026-05-08 06:08 -7.51465 -70.55784 35922 ft 459 kts 328°
2026-05-08 06:08 -7.45881 -70.58822 35921 ft 459 kts 328°
2026-05-08 06:09 -7.40258 -70.61882 35919 ft 459 kts 328°
2026-05-08 06:09 -7.34644 -70.64935 35921 ft 459 kts 328°
2026-05-08 06:10 -7.28999 -70.68004 35920 ft 459 kts 328°
2026-05-08 06:10 -7.23411 -70.71042 35924 ft 459 kts 328°
2026-05-08 06:11 -7.17782 -70.74101 35929 ft 459 kts 328°
2026-05-08 06:11 -7.12150 -70.77161 35922 ft 460 kts 328°
2026-05-08 06:12 -7.06519 -70.80219 35927 ft 460 kts 328°
2026-05-08 06:12 -7.01836 -70.82761 35924 ft 460 kts 328°
2026-05-08 06:13 -6.96208 -70.85817 35923 ft 460 kts 328°
2026-05-08 06:13 -6.90576 -70.88873 35923 ft 460 kts 328°
2026-05-08 06:14 -6.84939 -70.91931 35924 ft 460 kts 328°
2026-05-08 06:14 -6.79302 -70.94989 35924 ft 460 kts 328°
2026-05-08 06:15 -6.73699 -70.98028 35924 ft 460 kts 328°
2026-05-08 06:15 -6.68059 -71.01085 35924 ft 460 kts 328°
2026-05-08 06:16 -6.62419 -71.04142 35923 ft 460 kts 328°
2026-05-08 06:16 -6.56777 -71.07199 35925 ft 460 kts 328°
2026-05-08 06:17 -6.48315 -71.11784 35924 ft 460 kts 328°
2026-05-08 06:17 -6.42669 -71.14842 35926 ft 461 kts 328°
2026-05-08 06:18 -6.37020 -71.17900 35928 ft 461 kts 328°
2026-05-08 06:18 -6.31401 -71.20940 35921 ft 461 kts 328°
2026-05-08 06:19 -6.25754 -71.23996 35925 ft 461 kts 328°
2026-05-08 06:19 -6.20107 -71.27052 35926 ft 461 kts 328°
2026-05-08 06:20 -6.14458 -71.30108 35927 ft 461 kts 328°
2026-05-08 06:20 -6.08801 -71.33168 35927 ft 461 kts 328°
2026-05-08 06:21 -6.03141 -71.36229 35924 ft 461 kts 328°
2026-05-08 06:21 -5.97487 -71.39287 35925 ft 461 kts 328°
2026-05-08 06:22 -5.91863 -71.42327 35923 ft 461 kts 328°
2026-05-08 06:22 -5.86202 -71.45386 35925 ft 461 kts 328°
2026-05-08 06:23 -5.80540 -71.48443 35920 ft 462 kts 328°
2026-05-08 06:23 -5.74879 -71.51500 35924 ft 462 kts 328°
2026-05-08 06:24 -5.69214 -71.54559 35922 ft 462 kts 328°
2026-05-08 06:24 -5.63551 -71.57617 35928 ft 462 kts 328°
2026-05-08 06:25 -5.57927 -71.60652 35928 ft 462 kts 328°
2026-05-08 06:25 -5.52266 -71.63708 35924 ft 462 kts 328°
2026-05-08 06:26 -5.46606 -71.66762 35929 ft 462 kts 328°
2026-05-08 06:26 -5.40950 -71.69813 35923 ft 462 kts 328°
2026-05-08 06:27 -5.35279 -71.72872 35925 ft 462 kts 328°
2026-05-08 06:27 -5.29620 -71.75923 35928 ft 462 kts 328°
2026-05-08 06:28 -5.23990 -71.78959 35927 ft 462 kts 328°
2026-05-08 06:28 -5.18332 -71.82008 35922 ft 462 kts 328°
2026-05-08 06:29 -5.12675 -71.85057 35923 ft 462 kts 328°
2026-05-08 06:29 -5.07012 -71.88108 35926 ft 462 kts 328°
2026-05-08 06:30 -5.01353 -71.91157 35920 ft 462 kts 328°
2026-05-08 06:30 -4.95685 -71.94210 35920 ft 462 kts 328°
2026-05-08 06:31 -4.90022 -71.97259 35924 ft 462 kts 328°
2026-05-08 06:31 -4.84363 -72.00306 35922 ft 462 kts 328°
2026-05-08 06:32 -4.78740 -72.03333 35923 ft 461 kts 328°
2026-05-08 06:32 -4.73082 -72.06379 35921 ft 461 kts 328°
2026-05-08 06:33 -4.67425 -72.09423 35922 ft 461 kts 328°
2026-05-08 06:33 -4.61765 -72.12458 35923 ft 461 kts 328°
2026-05-08 06:34 -4.56096 -72.15495 35924 ft 461 kts 328°
2026-05-08 06:34 -4.50429 -72.18532 35922 ft 461 kts 328°
2026-05-08 06:35 -4.44807 -72.21546 35925 ft 461 kts 328°
2026-05-08 06:35 -4.39147 -72.24580 35923 ft 461 kts 328°
2026-05-08 06:36 -4.33485 -72.27614 35920 ft 461 kts 328°
2026-05-08 06:36 -4.27825 -72.30646 35925 ft 461 kts 328°
2026-05-08 06:37 -4.22161 -72.33681 35921 ft 462 kts 328°
2026-05-08 06:37 -4.16491 -72.36718 35929 ft 462 kts 328°
2026-05-08 06:38 -4.10821 -72.39754 35922 ft 462 kts 328°
2026-05-08 06:38 -4.05145 -72.42793 35922 ft 462 kts 328°
2026-05-08 06:39 -3.99471 -72.45831 35927 ft 462 kts 328°
2026-05-08 06:39 -3.93827 -72.48852 35924 ft 462 kts 328°
2026-05-08 06:40 -3.88143 -72.51894 35922 ft 463 kts 328°
2026-05-08 06:40 -3.82467 -72.54931 35924 ft 463 kts 328°
2026-05-08 06:41 -3.76777 -72.57976 35920 ft 463 kts 328°
2026-05-08 06:41 -3.71087 -72.61019 35921 ft 463 kts 328°
2026-05-08 06:42 -3.65401 -72.64061 35923 ft 463 kts 328°
2026-05-08 06:42 -3.59712 -72.67103 35924 ft 463 kts 329°
2026-05-08 06:43 -3.54057 -72.70127 35919 ft 463 kts 328°
2026-05-08 06:43 -3.48362 -72.73172 35923 ft 463 kts 329°
2026-05-08 06:44 -3.42670 -72.76214 35920 ft 463 kts 329°
2026-05-08 06:44 -3.36981 -72.79255 35918 ft 463 kts 329°
2026-05-08 06:45 -3.31294 -72.82295 35920 ft 463 kts 328°
2026-05-08 06:45 -3.25607 -72.85334 35918 ft 463 kts 328°
2026-05-08 06:46 -3.19903 -72.88382 35921 ft 463 kts 328°
2026-05-08 06:46 -3.14247 -72.91404 35919 ft 463 kts 329°
2026-05-08 06:47 -3.08550 -72.94447 35920 ft 463 kts 328°
2026-05-08 06:47 -3.02853 -72.97490 35919 ft 463 kts 328°
2026-05-08 06:48 -2.97153 -73.00535 35921 ft 463 kts 328°
2026-05-08 06:48 -2.91284 -73.03144 35934 ft 467 kts 338°
2026-05-08 06:49 -2.85097 -73.05185 35923 ft 468 kts 339°
2026-05-08 06:49 -2.78900 -73.07192 35919 ft 468 kts 339°
2026-05-08 06:50 -2.72715 -73.09235 35920 ft 468 kts 338°
2026-05-08 06:50 -2.66534 -73.11303 35920 ft 468 kts 338°
2026-05-08 06:51 -2.60352 -73.13379 35923 ft 468 kts 338°
2026-05-08 06:51 -2.54163 -73.15455 35922 ft 469 kts 338°
2026-05-08 06:52 -2.48022 -73.17514 35919 ft 469 kts 338°
2026-05-08 06:52 -2.41823 -73.19592 35922 ft 469 kts 338°
2026-05-08 06:53 -2.35628 -73.21668 35921 ft 469 kts 338°
2026-05-08 06:53 -2.29438 -73.23742 35917 ft 469 kts 338°
2026-05-08 06:54 -2.23232 -73.25821 35920 ft 469 kts 339°
2026-05-08 06:54 -2.17030 -73.27899 35919 ft 469 kts 339°
2026-05-08 06:55 -2.10872 -73.29962 35921 ft 469 kts 339°
2026-05-08 06:55 -2.04682 -73.32036 35916 ft 469 kts 339°
2026-05-08 06:56 -1.98485 -73.34111 35918 ft 469 kts 339°
2026-05-08 06:56 -1.92293 -73.36185 35919 ft 469 kts 339°
2026-05-08 06:57 -1.87150 -73.37908 35920 ft 468 kts 339°
2026-05-08 06:57 -1.80967 -73.39978 35922 ft 468 kts 339°
2026-05-08 06:58 -1.74776 -73.42051 35917 ft 468 kts 339°
2026-05-08 06:58 -1.68600 -73.44119 35920 ft 468 kts 339°
2026-05-08 06:59 -1.62461 -73.46174 35920 ft 468 kts 339°
2026-05-08 06:59 -1.56293 -73.48240 35920 ft 467 kts 339°
2026-05-08 07:00 -1.50128 -73.50304 35919 ft 467 kts 339°
2026-05-08 07:00 -1.43964 -73.52367 35924 ft 467 kts 339°
2026-05-08 07:01 -1.37803 -73.54430 35925 ft 467 kts 339°
2026-05-08 07:01 -1.31631 -73.56496 35918 ft 467 kts 339°
2026-05-08 07:02 -1.25474 -73.58557 35924 ft 466 kts 339°
2026-05-08 07:02 -1.19354 -73.60606 35926 ft 467 kts 339°
2026-05-08 07:03 -1.13217 -73.62728 35911 ft 466 kts 334°
2026-05-08 07:03 -1.07582 -73.65831 35923 ft 462 kts 326°
2026-05-08 07:04 -1.02088 -73.69189 35923 ft 462 kts 326°
2026-05-08 07:04 -0.96597 -73.72525 35920 ft 463 kts 327°
2026-05-08 07:05 -0.91068 -73.75841 35919 ft 463 kts 327°
2026-05-08 07:05 -0.85536 -73.79142 35921 ft 463 kts 327°
2026-05-08 07:06 -0.80003 -73.82439 35921 ft 463 kts 327°
2026-05-08 07:06 -0.74460 -73.85744 35915 ft 464 kts 327°
2026-05-08 07:07 -0.68909 -73.89055 35922 ft 464 kts 327°
2026-05-08 07:07 -0.63364 -73.92362 35921 ft 464 kts 327°
2026-05-08 07:08 -0.57818 -73.95670 35923 ft 464 kts 327°
2026-05-08 07:08 -0.52273 -73.98977 35921 ft 464 kts 327°
2026-05-08 07:09 -0.46728 -74.02285 35923 ft 464 kts 327°
2026-05-08 07:09 -0.41179 -74.05594 35922 ft 464 kts 327°
2026-05-08 07:10 -0.35629 -74.08904 35919 ft 464 kts 327°
2026-05-08 07:10 -0.30114 -74.12193 35923 ft 464 kts 327°
2026-05-08 07:11 -0.24563 -74.15504 35922 ft 464 kts 327°
2026-05-08 07:11 -0.19005 -74.18818 35920 ft 464 kts 327°
2026-05-08 07:12 -0.13456 -74.22127 35918 ft 465 kts 327°
2026-05-08 07:12 -0.07897 -74.25442 35921 ft 465 kts 327°
2026-05-08 07:13 -0.02342 -74.28755 35923 ft 465 kts 327°
2026-05-08 07:13 0.03182 -74.32049 35924 ft 465 kts 327°
2026-05-08 07:14 0.08740 -74.35365 35924 ft 465 kts 327°
2026-05-08 07:14 0.14306 -74.38684 35923 ft 466 kts 327°
2026-05-08 07:15 0.19876 -74.42005 35924 ft 466 kts 327°
2026-05-08 07:15 0.25444 -74.45326 35920 ft 466 kts 327°
2026-05-08 07:16 0.31020 -74.48651 35922 ft 467 kts 327°
2026-05-08 07:16 0.36598 -74.51979 35923 ft 467 kts 327°
2026-05-08 07:17 0.42179 -74.55307 35924 ft 467 kts 327°
2026-05-08 07:17 0.47761 -74.58636 35925 ft 467 kts 327°
2026-05-08 07:18 0.53348 -74.61969 35923 ft 467 kts 327°
2026-05-08 07:18 0.58931 -74.65299 35922 ft 467 kts 327°
2026-05-08 07:19 0.64488 -74.68613 35919 ft 467 kts 327°
2026-05-08 07:19 0.70068 -74.71942 35922 ft 467 kts 327°
2026-05-08 07:20 0.75649 -74.75272 35918 ft 467 kts 327°
2026-05-08 07:20 0.81224 -74.78598 35920 ft 466 kts 327°
2026-05-08 07:21 0.86760 -74.81902 35921 ft 466 kts 327°
2026-05-08 07:21 0.92323 -74.85228 35925 ft 465 kts 327°
2026-05-08 07:22 0.97880 -74.88551 35921 ft 465 kts 327°
2026-05-08 07:22 1.03426 -74.91868 35922 ft 465 kts 327°
2026-05-08 07:23 1.08978 -74.95188 35918 ft 464 kts 327°
2026-05-08 07:23 1.14519 -74.98501 35924 ft 464 kts 327°
2026-05-08 07:24 1.20057 -75.01814 35918 ft 464 kts 327°
2026-05-08 07:24 1.25593 -75.05125 35922 ft 463 kts 327°
2026-05-08 07:25 1.31122 -75.08432 35922 ft 463 kts 327°
2026-05-08 07:26 1.39385 -75.13375 35924 ft 463 kts 327°
2026-05-08 07:26 1.44916 -75.16684 35925 ft 463 kts 327°
2026-05-08 07:27 1.50443 -75.19991 35933 ft 463 kts 327°
2026-05-08 07:27 1.55965 -75.23295 35932 ft 463 kts 327°
2026-05-08 07:28 1.61459 -75.26583 35943 ft 463 kts 327°
2026-05-08 07:28 1.66985 -75.29890 35944 ft 463 kts 327°
2026-05-08 07:29 1.72519 -75.33196 35940 ft 463 kts 327°
2026-05-08 07:29 1.78042 -75.36493 35952 ft 463 kts 327°
2026-05-08 07:30 1.83571 -75.39796 35973 ft 463 kts 327°
2026-05-08 07:30 1.89112 -75.43106 35984 ft 463 kts 327°
2026-05-08 07:31 1.94650 -75.46415 35994 ft 464 kts 327°
2026-05-08 07:31 2.00193 -75.49728 35998 ft 464 kts 327°
2026-05-08 07:32 2.05736 -75.53040 35998 ft 464 kts 327°
2026-05-08 07:32 2.11269 -75.56347 36002 ft 464 kts 327°
2026-05-08 07:33 2.16805 -75.59656 36003 ft 463 kts 327°
2026-05-08 07:33 2.22338 -75.62965 36002 ft 463 kts 327°
2026-05-08 07:34 2.27875 -75.66275 35993 ft 464 kts 327°
2026-05-08 07:34 2.33411 -75.69585 35992 ft 463 kts 327°
2026-05-08 07:35 2.38912 -75.72874 35988 ft 464 kts 327°
2026-05-08 07:35 2.44452 -75.76187 35997 ft 464 kts 328°
2026-05-08 07:36 2.49992 -75.79501 36004 ft 464 kts 328°
2026-05-08 07:36 2.55539 -75.82819 36009 ft 465 kts 328°
2026-05-08 07:37 2.61095 -75.86142 36028 ft 465 kts 328°
2026-05-08 07:37 2.66654 -75.89468 36030 ft 465 kts 328°
2026-05-08 07:38 2.72214 -75.92795 36056 ft 465 kts 328°
2026-05-08 07:38 2.77774 -75.96122 36059 ft 465 kts 328°
2026-05-08 07:39 2.83325 -75.99444 36069 ft 465 kts 328°
2026-05-08 07:39 2.88872 -76.02764 36070 ft 465 kts 328°
2026-05-08 07:40 2.94390 -76.06067 36070 ft 465 kts 328°
2026-05-08 07:40 2.99948 -76.09395 36069 ft 465 kts 328°
2026-05-08 07:41 3.05501 -76.12719 36058 ft 465 kts 328°
2026-05-08 07:41 3.10115 -76.15483 36058 ft 465 kts 328°
2026-05-08 07:42 3.15669 -76.18809 36034 ft 465 kts 328°
2026-05-08 07:42 3.21216 -76.22131 36025 ft 464 kts 328°
2026-05-08 07:43 3.26759 -76.25452 36009 ft 464 kts 328°
2026-05-08 07:43 3.32298 -76.28769 36012 ft 463 kts 328°
2026-05-08 07:44 3.37826 -76.32082 36013 ft 462 kts 328°
2026-05-08 07:44 3.43340 -76.35386 36021 ft 461 kts 328°
2026-05-08 07:45 3.48841 -76.38684 36022 ft 461 kts 328°
2026-05-08 07:45 3.54339 -76.41979 36022 ft 460 kts 328°
2026-05-08 07:46 3.59794 -76.45250 36022 ft 460 kts 328°
2026-05-08 07:46 3.65281 -76.48539 36015 ft 459 kts 328°
2026-05-08 07:47 3.70766 -76.51829 35996 ft 459 kts 328°
2026-05-08 07:47 3.76244 -76.55115 35987 ft 459 kts 328°
2026-05-08 07:48 3.81734 -76.58408 35965 ft 459 kts 328°
2026-05-08 07:48 3.87220 -76.61699 35959 ft 460 kts 328°
2026-05-08 07:49 3.92714 -76.64996 35958 ft 460 kts 328°
2026-05-08 07:49 3.98179 -76.68275 35945 ft 461 kts 328°
2026-05-08 07:50 4.03687 -76.71581 35935 ft 462 kts 328°
2026-05-08 07:50 4.09200 -76.74891 35930 ft 462 kts 328°
2026-05-08 07:51 4.14714 -76.78202 35921 ft 462 kts 328°
2026-05-08 07:51 4.20233 -76.81516 35909 ft 462 kts 328°
2026-05-08 07:52 4.25754 -76.84832 35905 ft 463 kts 328°
2026-05-08 07:52 4.31284 -76.88154 35896 ft 463 kts 328°
2026-05-08 07:53 4.36808 -76.91474 35895 ft 463 kts 328°
2026-05-08 07:53 4.42333 -76.94794 35886 ft 463 kts 329°
2026-05-08 07:54 4.47836 -76.98101 35885 ft 463 kts 329°
2026-05-08 07:54 4.53363 -77.01424 35881 ft 463 kts 329°
2026-05-08 07:55 4.58887 -77.04745 35882 ft 463 kts 329°
2026-05-08 07:55 4.64415 -77.08069 35884 ft 463 kts 329°
2026-05-08 07:56 4.69935 -77.11390 35881 ft 463 kts 329°
2026-05-08 07:56 4.75424 -77.14692 35886 ft 463 kts 329°
2026-05-08 07:57 4.80953 -77.18019 35884 ft 462 kts 329°
2026-05-08 07:57 4.86479 -77.21344 35885 ft 462 kts 329°
2026-05-08 07:58 4.91991 -77.24662 35882 ft 462 kts 329°
2026-05-08 07:58 4.97508 -77.27984 35878 ft 462 kts 329°
2026-05-08 07:59 5.03023 -77.31304 35878 ft 462 kts 328°
2026-05-08 07:59 5.08533 -77.34623 35880 ft 462 kts 328°
2026-05-08 08:00 5.14053 -77.37949 35877 ft 462 kts 328°
2026-05-08 08:00 5.19572 -77.41274 35883 ft 462 kts 328°
2026-05-08 08:01 5.25054 -77.44578 35883 ft 462 kts 328°
2026-05-08 08:01 5.30575 -77.47906 35874 ft 463 kts 328°
2026-05-08 08:02 5.36104 -77.51239 35881 ft 463 kts 328°
2026-05-08 08:02 5.41629 -77.54571 35885 ft 463 kts 328°
2026-05-08 08:03 5.47151 -77.57902 35876 ft 463 kts 328°
2026-05-08 08:03 5.52676 -77.61235 35873 ft 464 kts 328°
2026-05-08 08:04 5.58176 -77.64554 35871 ft 464 kts 328°
2026-05-08 08:04 5.63711 -77.67895 35873 ft 464 kts 328°
2026-05-08 08:05 5.69251 -77.71239 35871 ft 464 kts 328°
2026-05-08 08:05 5.74792 -77.74585 35874 ft 465 kts 328°
2026-05-08 08:06 5.80337 -77.77934 35871 ft 465 kts 328°
2026-05-08 08:06 5.85878 -77.81282 35871 ft 465 kts 328°
2026-05-08 08:07 5.91424 -77.84633 35870 ft 465 kts 328°
2026-05-08 08:07 5.96967 -77.87983 35873 ft 465 kts 328°
2026-05-08 08:08 6.02479 -77.91316 35872 ft 465 kts 328°
2026-05-08 08:08 6.08030 -77.94672 35872 ft 465 kts 328°
2026-05-08 08:09 6.13582 -77.98030 35870 ft 465 kts 328°
2026-05-08 08:09 6.19098 -78.01368 35871 ft 465 kts 328°
2026-05-08 08:10 6.24646 -78.04725 35872 ft 465 kts 328°
2026-05-08 08:10 6.30190 -78.08081 35872 ft 465 kts 328°
2026-05-08 08:11 6.35744 -78.11444 35872 ft 465 kts 328°
2026-05-08 08:11 6.41294 -78.14806 35871 ft 466 kts 328°
2026-05-08 08:12 6.46860 -78.18177 35870 ft 466 kts 328°
2026-05-08 08:12 6.52410 -78.21540 35871 ft 466 kts 328°
2026-05-08 08:13 6.57930 -78.24886 35868 ft 466 kts 328°
2026-05-08 08:13 6.63490 -78.28258 35867 ft 466 kts 328°
2026-05-08 08:14 6.69041 -78.31625 35869 ft 466 kts 328°
2026-05-08 08:14 6.74603 -78.34996 35868 ft 466 kts 328°
2026-05-08 08:15 6.80173 -78.38360 35870 ft 466 kts 328°
2026-05-08 08:15 6.85742 -78.41723 35870 ft 467 kts 328°
2026-05-08 08:16 6.91276 -78.45069 35868 ft 467 kts 328°
2026-05-08 08:16 6.96850 -78.48441 35869 ft 467 kts 328°
2026-05-08 08:17 7.02421 -78.51812 35871 ft 467 kts 328°
2026-05-08 08:17 7.07995 -78.55186 35864 ft 468 kts 328°
2026-05-08 08:18 7.13573 -78.58563 35866 ft 468 kts 328°
2026-05-08 08:18 7.19155 -78.61943 35870 ft 468 kts 328°
2026-05-08 08:19 7.24734 -78.65324 35869 ft 468 kts 328°
2026-05-08 08:19 7.30322 -78.68710 35868 ft 468 kts 328°
2026-05-08 08:20 7.35906 -78.72096 35869 ft 469 kts 328°
2026-05-08 08:20 7.41462 -78.75465 35868 ft 469 kts 328°
2026-05-08 08:21 7.47051 -78.78855 35868 ft 469 kts 328°
2026-05-08 08:21 7.52662 -78.82219 35871 ft 469 kts 329°
2026-05-08 08:22 7.58316 -78.85513 35875 ft 469 kts 329°
2026-05-08 08:22 7.63969 -78.88798 35873 ft 469 kts 329°
2026-05-08 08:23 7.69610 -78.92091 35875 ft 468 kts 329°
2026-05-08 08:23 7.75245 -78.95388 35873 ft 468 kts 329°
2026-05-08 08:24 7.80834 -78.98661 35875 ft 467 kts 329°
2026-05-08 08:24 7.86457 -79.01956 35872 ft 467 kts 329°
2026-05-08 08:25 7.92065 -79.05241 35873 ft 466 kts 329°
2026-05-08 08:25 7.97674 -79.08528 35870 ft 465 kts 329°
2026-05-08 08:26 8.03274 -79.11811 35870 ft 465 kts 329°
2026-05-08 08:26 8.08830 -79.15070 35869 ft 464 kts 329°
2026-05-08 08:27 8.14403 -79.18339 35864 ft 463 kts 329°
2026-05-08 08:27 8.19068 -79.21077 35868 ft 463 kts 329°
2026-05-08 08:28 8.24600 -79.24324 35864 ft 462 kts 329°
2026-05-08 08:28 8.30158 -79.27587 35866 ft 461 kts 329°
2026-05-08 08:29 8.35707 -79.30846 35864 ft 461 kts 329°
2026-05-08 08:29 8.41245 -79.34101 35861 ft 460 kts 330°
2026-05-08 08:30 8.46782 -79.37356 35866 ft 460 kts 330°
2026-05-08 08:30 8.55092 -79.42242 35868 ft 460 kts 330°
2026-05-08 08:31 8.60636 -79.45504 35866 ft 461 kts 330°
2026-05-08 08:31 8.66145 -79.48746 35863 ft 461 kts 330°
2026-05-08 08:32 8.71704 -79.52019 35864 ft 462 kts 330°
2026-05-08 08:32 8.77297 -79.55229 35854 ft 462 kts 335°
2026-05-08 08:33 8.83413 -79.57128 35861 ft 461 kts 350°
2026-05-08 08:33 8.89760 -79.58162 35856 ft 462 kts 351°
2026-05-08 08:34 8.96114 -79.59173 35884 ft 463 kts 351°
2026-05-08 08:34 9.02477 -79.60229 35888 ft 463 kts 351°
2026-05-08 08:35 9.08832 -79.61308 35884 ft 463 kts 351°
2026-05-08 08:35 9.15194 -79.62395 35882 ft 463 kts 351°
2026-05-08 08:36 9.21510 -79.63474 35884 ft 463 kts 351°
2026-05-08 08:36 9.27871 -79.64560 35882 ft 463 kts 351°
2026-05-08 08:37 9.34229 -79.65645 35882 ft 463 kts 351°
2026-05-08 08:37 9.40587 -79.66730 35881 ft 463 kts 351°
2026-05-08 08:38 9.46936 -79.67814 35881 ft 462 kts 351°
2026-05-08 08:38 9.53239 -79.68891 35882 ft 462 kts 351°
2026-05-08 08:39 9.59582 -79.69975 35884 ft 462 kts 351°
2026-05-08 08:39 9.65922 -79.71059 35880 ft 461 kts 351°
2026-05-08 08:40 9.72267 -79.72144 35877 ft 461 kts 351°
2026-05-08 08:40 9.78592 -79.73226 35877 ft 461 kts 351°
2026-05-08 08:41 9.84912 -79.74308 35876 ft 460 kts 351°
2026-05-08 08:41 9.91185 -79.75382 35878 ft 460 kts 351°
2026-05-08 08:42 9.97499 -79.76464 35877 ft 460 kts 351°
2026-05-08 08:42 10.03806 -79.77544 35877 ft 460 kts 351°
2026-05-08 08:43 10.10109 -79.78625 35880 ft 459 kts 351°
2026-05-08 08:43 10.16410 -79.79706 35882 ft 459 kts 351°
2026-05-08 08:44 10.22714 -79.80787 35880 ft 459 kts 351°
2026-05-08 08:44 10.29018 -79.81869 35882 ft 459 kts 352°
2026-05-08 08:45 10.35321 -79.82952 35880 ft 459 kts 352°
2026-05-08 08:45 10.41623 -79.84035 35881 ft 459 kts 352°
2026-05-08 08:46 10.47928 -79.85095 35882 ft 459 kts 352°
2026-05-08 08:46 10.54196 -79.86130 35885 ft 459 kts 352°
2026-05-08 08:47 10.60521 -79.87175 35880 ft 460 kts 352°
2026-05-08 08:47 10.66834 -79.88222 35882 ft 460 kts 352°
2026-05-08 08:48 10.73153 -79.89272 35885 ft 460 kts 352°
2026-05-08 08:48 10.79471 -79.90322 35884 ft 460 kts 352°
2026-05-08 08:49 10.85789 -79.91373 35886 ft 460 kts 352°
2026-05-08 08:49 10.92066 -79.92418 35884 ft 460 kts 352°
2026-05-08 08:50 10.98395 -79.93472 35885 ft 460 kts 352°
2026-05-08 08:50 11.04712 -79.94524 35885 ft 460 kts 352°
2026-05-08 08:51 11.11033 -79.95577 35882 ft 460 kts 352°
2026-05-08 08:51 11.17347 -79.96630 35887 ft 459 kts 352°
2026-05-08 08:52 11.23656 -79.97681 35887 ft 459 kts 352°
2026-05-08 08:52 11.29951 -79.98733 35890 ft 458 kts 352°
2026-05-08 08:53 11.36204 -79.99777 35889 ft 458 kts 352°
2026-05-08 08:53 11.42501 -80.00828 35887 ft 457 kts 352°
2026-05-08 08:54 11.48775 -80.01876 35889 ft 456 kts 352°
2026-05-08 08:54 11.55000 -80.02917 35888 ft 456 kts 351°
2026-05-08 08:55 11.61255 -80.03962 35891 ft 455 kts 351°
2026-05-08 08:55 11.67503 -80.05008 35890 ft 454 kts 351°
2026-05-08 08:56 11.73744 -80.06052 35889 ft 454 kts 351°
2026-05-08 08:56 11.79979 -80.07096 35894 ft 453 kts 351°
2026-05-08 08:57 11.86199 -80.08138 35894 ft 453 kts 351°
2026-05-08 08:57 11.92415 -80.09180 35894 ft 452 kts 351°
2026-05-08 08:58 11.98601 -80.10218 35895 ft 452 kts 351°
2026-05-08 08:58 12.04805 -80.11259 35897 ft 452 kts 351°
2026-05-08 08:59 12.11005 -80.12299 35896 ft 451 kts 351°
2026-05-08 08:59 12.17163 -80.13333 35897 ft 451 kts 351°
2026-05-08 09:00 12.23351 -80.14373 35896 ft 451 kts 351°
2026-05-08 09:00 12.29543 -80.15413 35899 ft 451 kts 351°
2026-05-08 09:01 12.35736 -80.16455 35898 ft 451 kts 351°
2026-05-08 09:01 12.41925 -80.17496 35899 ft 450 kts 351°
2026-05-08 09:02 12.48113 -80.18538 35903 ft 450 kts 351°
2026-05-08 09:02 12.54263 -80.19574 35901 ft 450 kts 351°
2026-05-08 09:03 12.60446 -80.20616 35903 ft 451 kts 351°
2026-05-08 09:03 12.66644 -80.21660 35901 ft 451 kts 351°
2026-05-08 09:04 12.72838 -80.22705 35902 ft 451 kts 351°
2026-05-08 09:04 12.79036 -80.23751 35908 ft 451 kts 351°
2026-05-08 09:05 12.85248 -80.24799 35905 ft 452 kts 351°
2026-05-08 09:05 12.91451 -80.25847 35906 ft 452 kts 351°
2026-05-08 09:06 12.97619 -80.26890 35909 ft 452 kts 351°
2026-05-08 09:06 13.03831 -80.27940 35907 ft 452 kts 351°
2026-05-08 09:07 13.10053 -80.28992 35908 ft 453 kts 351°
2026-05-08 09:07 13.16261 -80.30043 35907 ft 452 kts 351°
2026-05-08 09:08 13.22478 -80.31096 35909 ft 452 kts 351°
2026-05-08 09:08 13.28688 -80.32148 35911 ft 452 kts 351°
2026-05-08 09:09 13.34891 -80.33199 35911 ft 451 kts 351°
2026-05-08 09:09 13.41086 -80.34250 35913 ft 451 kts 351°
2026-05-08 09:10 13.47275 -80.35301 35913 ft 451 kts 351°
2026-05-08 09:10 13.53463 -80.36351 35914 ft 450 kts 351°
2026-05-08 09:11 13.59645 -80.37401 35911 ft 450 kts 351°
2026-05-08 09:11 13.65781 -80.38444 35916 ft 449 kts 351°
2026-05-08 09:12 14.97063 -80.59297 35922 ft 449 kts 343°
2026-05-08 09:12 15.02873 -80.61664 35939 ft 448 kts 342°
2026-05-08 09:13 15.08920 -80.63155 35937 ft 446 kts 351°
2026-05-08 09:13 15.15067 -80.64138 35930 ft 446 kts 352°
2026-05-08 09:14 15.21174 -80.65100 35931 ft 446 kts 351°
2026-05-08 09:14 15.27298 -80.66129 35932 ft 446 kts 351°
2026-05-08 09:15 15.33423 -80.67190 35933 ft 446 kts 351°
2026-05-08 09:15 15.39534 -80.68255 35934 ft 446 kts 351°
2026-05-08 09:16 15.44619 -80.69141 35934 ft 446 kts 351°
2026-05-08 09:16 19.98570 -81.45277 35989 ft 32000 kts 351°
2026-05-08 09:16 20.02566 -81.45966 36108 ft 443 kts 348°
2026-05-08 09:17 20.08426 -81.48040 35999 ft 443 kts 331°
2026-05-08 09:17 20.13728 -81.51327 35985 ft 437 kts 329°
2026-05-08 09:18 20.19760 -81.55171 35978 ft 432 kts 329°
2026-05-08 09:18 20.24033 -81.57864 35972 ft 428 kts 329°
2026-05-08 09:19 20.29146 -81.61065 35965 ft 424 kts 329°
2026-05-08 09:19 20.34278 -81.64269 35993 ft 431 kts 329°
2026-05-08 09:20 20.39507 -81.67534 36000 ft 440 kts 329°
2026-05-08 09:20 20.44847 -81.70872 35999 ft 449 kts 329°
2026-05-08 09:21 20.50230 -81.74240 35990 ft 453 kts 329°
2026-05-08 09:23 20.69306 -81.86199 35980 ft 453 kts 329°
2026-05-08 09:23 20.74727 -81.89603 35980 ft 451 kts 329°
2026-05-08 09:24 20.80134 -81.93002 35979 ft 449 kts 329°
2026-05-08 09:24 20.85476 -81.96363 35978 ft 448 kts 329°
2026-05-08 09:25 20.90837 -81.99739 35977 ft 446 kts 329°
2026-05-08 09:25 20.96182 -82.03107 35974 ft 445 kts 329°
2026-05-08 09:26 21.01520 -82.06474 35974 ft 444 kts 329°
2026-05-08 09:26 21.06846 -82.09836 35974 ft 444 kts 329°
2026-05-08 09:27 21.12173 -82.13202 35977 ft 444 kts 329°
2026-05-08 09:27 21.17503 -82.16572 35979 ft 445 kts 329°
2026-05-08 09:28 21.22837 -82.19947 35982 ft 446 kts 329°
2026-05-08 09:28 21.28152 -82.23313 35983 ft 446 kts 329°
2026-05-08 09:29 21.33506 -82.26707 35984 ft 447 kts 329°
2026-05-08 09:29 21.38842 -82.30093 35964 ft 440 kts 329°
2026-05-08 09:29 21.41472 -82.31762 35496 ft 436 kts 329°
2026-05-08 09:30 21.44074 -82.33415 34923 ft 435 kts 329°
2026-05-08 09:30 21.46680 -82.35071 34330 ft 436 kts 329°
2026-05-08 09:30 21.49299 -82.36736 33650 ft 438 kts 328°
2026-05-08 09:30 21.51927 -82.38407 32912 ft 440 kts 328°
2026-05-08 09:31 21.54536 -82.40067 32212 ft 442 kts 328°
2026-05-08 09:31 21.57187 -82.41755 31499 ft 443 kts 328°
2026-05-08 09:31 21.59837 -82.43442 30985 ft 441 kts 328°
2026-05-08 09:31 21.62466 -82.45117 30475 ft 438 kts 328°
2026-05-08 09:32 21.65080 -82.46782 29963 ft 435 kts 328°
2026-05-08 09:32 21.67673 -82.48435 29379 ft 432 kts 328°
2026-05-08 09:32 21.70252 -82.50080 28826 ft 429 kts 328°
2026-05-08 09:32 21.72807 -82.51710 28313 ft 425 kts 328°
2026-05-08 09:33 21.75340 -82.53327 27787 ft 421 kts 328°
2026-05-08 09:33 21.77851 -82.54931 27279 ft 418 kts 328°
2026-05-08 09:33 21.80350 -82.56528 26773 ft 415 kts 328°
2026-05-08 09:33 21.82824 -82.58109 26275 ft 413 kts 328°
2026-05-08 09:34 21.85284 -82.59682 25775 ft 410 kts 328°
2026-05-08 09:34 21.87732 -82.61248 25281 ft 408 kts 328°
2026-05-08 09:34 21.90165 -82.62806 24768 ft 407 kts 328°
2026-05-08 09:34 21.92566 -82.64343 24263 ft 406 kts 328°
2026-05-08 09:35 21.94991 -82.65896 23765 ft 405 kts 328°
2026-05-08 09:35 21.97409 -82.67446 23199 ft 404 kts 328°
2026-05-08 09:35 21.99818 -82.68990 22668 ft 401 kts 328°
2026-05-08 09:35 22.02209 -82.70523 22153 ft 398 kts 328°
2026-05-08 09:36 22.04587 -82.72049 21656 ft 396 kts 328°
2026-05-08 09:36 22.06948 -82.73564 21166 ft 393 kts 328°
2026-05-08 09:36 22.09292 -82.75069 20683 ft 391 kts 328°
2026-05-08 09:36 22.11620 -82.76564 20197 ft 388 kts 329°
2026-05-08 09:37 22.13936 -82.78052 19716 ft 386 kts 329°
2026-05-08 09:37 22.16211 -82.79515 19224 ft 385 kts 329°
2026-05-08 09:37 22.18508 -82.80992 18737 ft 384 kts 329°
2026-05-08 09:37 22.20798 -82.82466 18243 ft 383 kts 329°
2026-05-08 09:38 22.23086 -82.83939 17702 ft 381 kts 329°
2026-05-08 09:38 22.25357 -82.85400 17205 ft 379 kts 329°
2026-05-08 09:38 22.27620 -82.86829 16716 ft 376 kts 333°
2026-05-08 09:38 22.29992 -82.87968 16227 ft 368 kts 340°
2026-05-08 09:39 22.32363 -82.88895 15780 ft 357 kts 342°
2026-05-08 09:39 22.34686 -82.89761 15339 ft 350 kts 342°
2026-05-08 09:39 22.36970 -82.90626 14899 ft 345 kts 341°
2026-05-08 09:39 22.39229 -82.91504 14441 ft 346 kts 341°
2026-05-08 09:40 22.41538 -82.92420 14001 ft 362 kts 341°
2026-05-08 09:40 22.43939 -82.93384 13489 ft 369 kts 341°
2026-05-08 09:40 22.46321 -82.94348 12981 ft 360 kts 340°
2026-05-08 09:40 22.48630 -82.95285 12491 ft 350 kts 340°
2026-05-08 09:41 22.50876 -82.96195 12058 ft 341 kts 341°
2026-05-08 09:41 22.53051 -82.97076 11644 ft 336 kts 341°
2026-05-08 09:41 22.55240 -82.97963 11115 ft 337 kts 341°
2026-05-08 09:41 22.57447 -82.98857 10860 ft 340 kts 341°
2026-05-08 09:42 22.59684 -82.99763 10650 ft 341 kts 341°
2026-05-08 09:42 22.61853 -83.00644 10497 ft 324 kts 341°
2026-05-08 09:42 22.63915 -83.01482 10360 ft 307 kts 341°
2026-05-08 09:42 22.65863 -83.02273 10245 ft 292 kts 341°
2026-05-08 09:43 22.67725 -83.03029 10138 ft 282 kts 341°
2026-05-08 09:43 22.69544 -83.03767 10043 ft 275 kts 341°
2026-05-08 09:43 22.71381 -83.04367 9842 ft 281 kts 357°
2026-05-08 09:43 22.73290 -83.04079 9585 ft 284 kts 26°
2026-05-08 09:44 22.74841 -83.02834 9285 ft 274 kts 55°
2026-05-08 09:44 22.75687 -83.01054 9018 ft 261 kts 73°
2026-05-08 09:44 22.76217 -82.99203 8744 ft 254 kts 75°
2026-05-08 09:44 22.76705 -82.97381 8477 ft 250 kts 76°
2026-05-08 09:45 22.77191 -82.95567 8224 ft 251 kts 75°
2026-05-08 09:45 22.77690 -82.93725 7975 ft 261 kts 75°
2026-05-08 09:45 22.78215 -82.91807 7703 ft 268 kts 75°
2026-05-08 09:45 22.78749 -82.89881 7403 ft 264 kts 75°
2026-05-08 09:46 22.79274 -82.87997 7109 ft 257 kts 75°
2026-05-08 09:46 22.79786 -82.86166 6834 ft 251 kts 75°
2026-05-08 09:46 22.80286 -82.84375 6568 ft 246 kts 75°
2026-05-08 09:46 22.80780 -82.82607 6318 ft 246 kts 75°
2026-05-08 09:47 22.81279 -82.80813 6048 ft 251 kts 74°
2026-05-08 09:47 22.81787 -82.78990 5782 ft 260 kts 74°
2026-05-08 09:47 22.82311 -82.77106 5496 ft 260 kts 74°
2026-05-08 09:47 22.82827 -82.75256 5207 ft 252 kts 74°
2026-05-08 09:48 22.83319 -82.73490 5100 ft 236 kts 74°
2026-05-08 09:48 22.83781 -82.71832 5010 ft 221 kts 74°
2026-05-08 09:48 22.84211 -82.70285 4907 ft 208 kts 74°
2026-05-08 09:48 22.84618 -82.68823 4714 ft 200 kts 74°
2026-05-08 09:49 22.85007 -82.67421 4581 ft 187 kts 74°
2026-05-08 09:49 22.85374 -82.66099 4345 ft 181 kts 74°
2026-05-08 09:49 22.85736 -82.64795 4049 ft 179 kts 74°
2026-05-08 09:49 22.86080 -82.63556 3958 ft 172 kts 74°
2026-05-08 09:50 22.86428 -82.62300 3888 ft 177 kts 74°
2026-05-08 09:50 22.86786 -82.61007 3816 ft 181 kts 74°
2026-05-08 09:50 22.87152 -82.59688 3667 ft 184 kts 74°
2026-05-08 09:50 22.87518 -82.58368 3466 ft 181 kts 73°
2026-05-08 09:51 22.87821 -82.57564 3323 ft 180 kts 59°
2026-05-08 09:51 22.88720 -82.56328 3160 ft 174 kts 53°
2026-05-08 09:51 22.89454 -82.55257 2952 ft 179 kts 55°
2026-05-08 09:51 22.90182 -82.54153 2721 ft 181 kts 55°
2026-05-08 09:52 22.90909 -82.53049 2481 ft 179 kts 55°
2026-05-08 09:52 22.91626 -82.51959 2266 ft 177 kts 55°
2026-05-08 09:52 22.92338 -82.50878 2038 ft 176 kts 55°
2026-05-08 09:52 22.93055 -82.49789 1812 ft 177 kts 55°
2026-05-08 09:53 22.93771 -82.48703 1584 ft 177 kts 55°
2026-05-08 09:53 22.94470 -82.47643 1346 ft 171 kts 55°
2026-05-08 09:53 22.95136 -82.46632 1142 ft 158 kts 55°
2026-05-08 09:53 22.95764 -82.45679 947 ft 155 kts 55°
2026-05-08 09:54 22.96331 -82.44819 770 ft 155 kts 55°
2026-05-08 09:54 22.96971 -82.43849 548 ft 163 kts 54°
2026-05-08 09:54 22.97631 -82.42848 346 ft 158 kts 55°
2026-05-08 09:54 22.98240 -82.41924 220 ft 138 kts 52°
2026-05-08 09:55 22.98719 -82.41209 220 ft 96 kts 54°
2026-05-08 09:55 22.99020 -82.40756 218 ft 51 kts 56°
2026-05-08 09:55 22.99178 -82.40517 223 ft 25 kts 53°
2026-05-08 09:55 22.99271 -82.40423 219 ft 8 kts
2026-05-08 09:56 22.99326 -82.40414 217 ft 9 kts 10°
2026-05-08 09:56 22.99439 -82.40397 222 ft 19 kts 358°
2026-05-08 09:56 22.99518 -82.40428 218 ft 8 kts 322°
2026-05-08 09:56 22.99538 -82.40445 218 ft 0 kts 323°
2026-05-08 09:57 22.99546 -82.40451 220 ft 6 kts 323°
2026-05-08 09:57 22.99607 -82.40518 220 ft 16 kts 300°
2026-05-08 09:57 22.99642 -82.40595 220 ft 0 kts 299°
2026-05-08 09:58 22.99653 -82.40613 220 ft 5 kts 299°
2026-05-08 09:58 22.99656 -82.40619 222 ft 0 kts 298°